SONATE-2
1 59112U 24043Q 24298.58788283 .00027489 00000-0 11330-2 0 9995
2 59112 97.4919 61.5632 0013529 199.4413 160.6310 15.23968051 35479
MO-122
1 60209U 24125G 24298.56665962 .00028254 00000-0 11590-2 0 9990
2 60209 97.3052 148.2580 0022719 227.7672 132.1638 15.23964201 17080
GRBBeta
1 60237U 24128C 24298.88822813 .00008746 00000-0 73406-3 0 9998
2 60237 61.9928 151.2704 0022411 355.6929 4.3963 14.98780964 16024
Curium One
1 60242U 24128H 24298.32753328 .00012542 00000-0 10442-2 0 9996
2 60242 61.9836 153.4124 0022368 343.7441 16.2928 14.98804026 15945
ROBUSTA-3A
1 60243U 24128J 24298.34284338 .00012279 00000-0 10301-2 0 9990
2 60243 61.9900 153.5702 0020565 339.8972 20.1304 14.98555406 15940
CatSat
1 60246U 24125J 24298.56482927 .00019943 00000-0 83388-3 0 9999
2 60246 97.2871 149.2675 0049689 180.4336 179.6867 15.22477216 15196
SR-0 DemoSAT
1 60455U 24147B 24298.85894591 .01126042 00000-0 59009-2 0 9993
2 60455 37.3681 217.7097 0028279 233.3208 126.4966 15.76837386 10797
Binar 4
1 60952U 98067WS 24298.50265497 .00831027 00000-0 35766-2 0 9995
2 60952 51.6264 29.7260 0009221 4.0257 356.0818 15.82262705 8777
CosmoGirlSat
1 60953U 98067WT 24298.27942091 .00235272 00000-0 21437-2 0 9992
2 60953 51.6328 32.7587 0003897 73.3893 286.7531 15.66610831 8717
Sakura
1 60954U 98067WU 24298.50001360 .00292693 00000-0 23842-2 0 9996
2 60954 51.6326 31.2304 0004068 51.9417 308.1946 15.69178226 8755
Binar 2
1 60956U 98067WW 24298.55267174 .00618960 00000-0 34266-2 0 9991
2 60956 51.6207 30.0445 0007587 14.4152 345.7063 15.77270055 8767
Binar 3
1 60957U 98067WX 24298.54814674 .00713636 00000-0 31624-2 0 9995
2 60957 51.6203 29.2689 0010975 10.1909 349.9313 15.81907717 10766
CySat-1
1 61501U 98067WZ 24298.52780644 .00168778 00000-0 24334-2 0 9999
2 61501 51.6382 34.4184 0007653 101.0509 259.1343 15.54874754 2549
DORA
1 61502U 98067XA 24298.70941954 .00252993 00000-0 33084-2 0 9998
2 61502 51.6376 33.3823 0007148 66.4443 293.7299 15.57207918 2562
/EX
1
0
SB KEPS @ AMSAT $ORB24292.1
2Line Orbital Elements 24292.AMSAT
QST de W1STR
AMSAT Orbital Elements for Amateur Satellites in TLE Format
>From Orbital Analysis Office
New England Sci-Tech STEM Education Center
Natick, MA October 18, 2024
To all radio amateurs
These element sets describe the orbits of various satellites
in use by the amateur radio community. For details see:
www.amsat.org/keplerian-elements-formats/
A daily update of element sets is available at:
www.amsat.org/tle/daily-bulletin.txt
or without bulletin text:
www.amsat.org/tle/dailytle.txt
AO-07
1 07530U 74089B 24291.74409500 -.00000025 00000-0 13592-3 0 9991
2 07530 101.9884 287.5799 0011970 209.5204 325.3944 12.53681091284634
UO-11
1 14781U 84021B 24291.48056220 .00004572 00000-0 50718-3 0 9993
2 14781 97.7216 257.2492 0009319 43.1666 317.0280 14.87705691166668
AO-27
1 22825U 93061C 24291.58773959 .00000733 00000-0 29806-3 0 9990
2 22825 98.7739 345.5590 0009495 82.4954 277.7306 14.30621435620384
FO-29
1 24278U 96046B 24291.33853594 .00000065 00000-0 10393-3 0 9996
2 24278 98.5821 209.9851 0349101 231.7741 125.1496 13.53217434390952
NOAA-15
1 25338U 98030A 24291.82947487 .00000855 00000-0 37096-3 0 9994
2 25338 98.5604 316.3606 0009639 332.0604 28.0058 14.26756061374921
GO-32
1 25397U 98043D 24291.91017759 .00000603 00000-0 28167-3 0 9993
2 25397 98.9395 260.5651 0001868 128.8850 231.2495 14.24158752365101
ISS
1 25544U 98067A 24291.85109771 .00022522 00000-0 40103-3 0 9990
2 25544 51.6384 67.8283 0009214 79.0908 281.1118 15.49994385477571
NO-44
1 26931U 01043C 24291.48964499 .00001085 00000-0 43923-3 0 9998
2 26931 67.0531 15.5480 0007592 264.6619 95.3616 14.31443103203611
SO-50
1 27607U 02058C 24291.48437230 .00004833 00000-0 65069-3 0 9993
2 27607 64.5555 205.3889 0028829 47.0195 313.3319 14.80002319174412
CO-55
1 27844U 03031E 24291.75422776 .00001711 00000-0 77033-3 0 9993
2 27844 98.6798 297.1129 0010345 143.2163 216.9727 14.23558472105256
CO-57
1 27848U 03031J 24290.96458532 .00001239 00000-0 56972-3 0 9992
2 27848 98.6830 296.5064 0009863 161.1256 199.0290 14.22955110104853
RS-22
1 27939U 03042A 24291.85501987 .00004321 00000-0 71330-3 0 9997
2 27939 98.3054 90.1831 0012282 37.2218 98.9069 14.70903472126301
NOAA-18
1 28654U 05018A 24291.82705946 .00000835 00000-0 46785-3 0 9997
2 28654 98.8656 7.7299 0015149 77.3907 282.8959 14.13378473 583
CO-58
1 28895U 05043F 24291.84148040 .00005816 00000-0 99960-3 0 9997
2 28895 98.2193 68.0586 0014713 332.8248 27.2185 14.68953930 12685
CO-65
1 32785U 08021C 24291.53380513 .00012003 00000-0 98238-3 0 9991
2 32785 97.7732 256.1318 0007357 287.8337 72.2083 14.99451296893796
AAUSAT2
1 32788U 08021F 24291.47162216 .00059556 00000-0 21394-2 0 9997
2 32788 97.6027 272.9393 0009100 95.8652 264.3625 15.28400837896921
CO-66
1 32791U 08021J 24291.80514751 .00020772 00000-0 13331-2 0 9993
2 32791 97.7044 262.7248 0002042 235.7266 124.3769 15.08500647895050
RS-30
1 32953U 08025A 24291.80419916 .00000048 00000-0 27682-3 0 9993
2 32953 82.5086 13.2149 0019630 194.3757 165.6766 12.43150737744362
PRISM
1 33493U 09002B 24291.44278720 .00068392 00000-0 22713-2 0 9990
2 33493 98.1880 350.4050 0010142 183.5189 176.5980 15.30906298857669
NOAA-19
1 33591U 09005A 24291.86691513 .00000781 00000-0 44193-3 0 9992
2 33591 99.0329 348.8874 0012938 308.7587 51.2428 14.13161876808958
SRMSAT
1 37841U 11058D 24291.88462296 .00000977 00000-0 38869-3 0 9991
2 37841 19.9708 134.6053 0011759 4.0254 132.6079 14.11246582672130
RS-40
1 38735U 12041C 24291.56013774 .00000039 00000-0 21384-3 0 9998
2 38735 82.4713 93.5818 0016775 313.8991 46.0703 12.42618478554374
ZACUBE-1
1 39417U 13066B 24291.44965878 .00010257 00000-0 99764-3 0 9992
2 39417 97.7487 244.9464 0050419 114.0476 246.6030 14.91777263589799
Delfi-N3xt
1 39428U 13066N 24291.73970435 .00016767 00000-0 19695-2 0 9997
2 39428 97.8337 207.0528 0097822 51.2606 309.7300 14.81539966584390
GOMX-1
1 39430U 13066Q 24291.60369740 .00006050 00000-0 98156-3 0 9991
2 39430 97.7107 158.5500 0135854 222.8480 136.2075 14.65508414580968
LO-74
1 39440U 13066AA 24291.79954098 .00010236 00000-0 11397-2 0 9990
2 39440 97.8229 233.0390 0064982 231.7935 127.7418 14.85748597587725
AO-73
1 39444U 13066AE 24291.41533413 .00014883 00000-0 13194-2 0 9996
2 39444 97.7332 248.4088 0047780 93.4720 267.1968 14.95424287588356
DTUSAT-2
1 40030U 14033W 24291.84346110 .00015073 00000-0 11611-2 0 9991
2 40030 98.0203 247.8767 0011689 122.0362 238.1998 15.01691397561591
EO-80
1 40032U 14033Y 24291.60906951 .00014220 00000-0 10937-2 0 9995
2 40032 98.0172 247.5963 0013065 78.5618 281.7073 15.01750368561549
XW-2C
1 40906U 15049H 24291.85080550 .00077826 00000-0 10728-2 0 9997
2 40906 97.4668 312.8732 0005540 187.8056 172.3113 15.56944422503453
XW-2D
1 40907U 15049J 24291.75638508 .00274093 00000-0 14699-2 0 9995
2 40907 97.4546 317.4631 0005149 166.8164 193.3238 15.79524687503813
LILACSAT-2
1 40908U 15049K 24291.84481885 .00017335 00000-0 59130-3 0 9994
2 40908 97.5226 301.7534 0009047 280.1333 79.8887 15.30376162502229
